Location: Albany
(35.0170°S, 117.8920°E)
Time: 23:01:56
(UTC+08:00)

Explorer 11/Cluster Stage 4 - Pass Details

Date: 31 January 2021
Orbit: 467 x 1257 km, 28.8° (Epoch: 06 March)

Event Time Altitude Azimuth Distance (km) Brightness Sun altitude
Rises 03:48:20 0° 327° (NNW) 4,185 - -18.3°
Reaches altitude 10° 03:52:07 10° 342° (NNW) 3,224 - -17.6°
Exits shadow 03:53:21 13° 349° (NNW) 2,962 9.1 -17.4°
Maximum altitude 03:57:50 21° 26° (NNE) 2,445 9.0 -16.7°
Drops below altitude 10° 04:03:16 10° 71° (ENE) 3,051 10.1 -15.8°
Sets 04:06:42 0° 86° (E) 3,901 11.0 -15.2°
